Hourly Weather Bolshie Prudy

Today, 23 June, Wednesday

Time Temperature Precipitation Wind Pressure Humidity
00:00 +21°C° 0 mm 2 mps 748 mmHg 80%
01:00 +21°C° 0 mm 2 mps 749 mmHg 80%
02:00 +20°C° 0 mm 2 mps 749 mmHg 78%
03:00 +21°C° 0 mm 2 mps 749 mmHg 79%
04:00 +21°C° 0 mm 2 mps 749 mmHg 79%
05:00 +21°C° 0 mm 2 mps 749 mmHg 79%
06:00 +24°C° 0 mm 2 mps 749 mmHg 75%
07:00 +26°C° 0 mm 2 mps 749 mmHg 71%
08:00 +28°C° 0 mm 3 mps 749 mmHg 66%
09:00 +29°C° 0 mm 3 mps 749 mmHg 63%
10:00 +30°C° 0 mm 3 mps 749 mmHg 59%
11:00 +31°C° 0 mm 3 mps 750 mmHg 56%
12:00 +31°C° 0 mm 3 mps 750 mmHg 55%
13:00 +31°C° 0 mm 3 mps 749 mmHg 53%
14:00 +33°C° 0 mm 3 mps 749 mmHg 51%
15:00 +31°C° 0 mm 2 mps 749 mmHg 56%
16:00 +31°C° 0 mm 2 mps 749 mmHg 60%
17:00 +31°C° 0 mm 2 mps 749 mmHg 65%
18:00 +29°C° 0 mm 2 mps 749 mmHg 70%
19:00 +27°C° 0 mm 2 mps 749 mmHg 75%
20:00 +25°C° 0 mm 2 mps 749 mmHg 80%
21:00 +24°C° 0 mm 1 mps 749 mmHg 81%
22:00 +24°C° 0 mm 1 mps 749 mmHg 83%
23:00 +23°C° 0 mm 1 mps 749 mmHg 84%

Tomorrow, 24 June, Thursday

Time Temperature Precipitation Wind Pressure Humidity
00:00 +23°C° 0 mm 1 mps 749 mmHg 84%
01:00 +22°C° 0 mm 1 mps 749 mmHg 85%
02:00 +22°C° 0 mm 1 mps 749 mmHg 85%
03:00 +22°C° 0 mm 1 mps 749 mmHg 84%
04:00 +23°C° 0 mm 1 mps 749 mmHg 84%
05:00 +24°C° 0 mm 1 mps 749 mmHg 83%
06:00 +25°C° 0 mm 1 mps 749 mmHg 78%
07:00 +27°C° 0 mm 1 mps 749 mmHg 73%
08:00 +28°C° 0 mm 1 mps 749 mmHg 68%
09:00 +29°C° 0 mm 2 mps 749 mmHg 64%
10:00 +30°C° 0 mm 2 mps 749 mmHg 60%
11:00 +31°C° 0 mm 2 mps 749 mmHg 56%
12:00 +31°C° 0 mm 2 mps 749 mmHg 54%
13:00 +32°C° 0 mm 1 mps 749 mmHg 53%
14:00 +32°C° 0 mm 1 mps 749 mmHg 52%
15:00 +32°C° 0 mm 1 mps 748 mmHg 56%
16:00 +32°C° 0 mm 1 mps 748 mmHg 59%
17:00 +32°C° 0 mm 1 mps 748 mmHg 63%
18:00 +30°C° 0 mm 1 mps 748 mmHg 67%
19:00 +28°C° 0 mm 1 mps 747 mmHg 71%
20:00 +26°C° 0 mm 1 mps 747 mmHg 75%
21:00 +26°C° 0 mm 1 mps 747 mmHg 77%
22:00 +23°C° 0 mm 0 mps 747 mmHg 79%
23:00 +22°C° 0 mm 0 mps 747 mmHg 81%

Day after tomorrow, 25 June, Friday

Time Temperature Precipitation Wind Pressure Humidity
00:00 +22°C° 0 mm 0 mps 747 mmHg 82%
01:00 +21°C° 0 mm 0 mps 747 mmHg 84%
02:00 +21°C° 0 mm 0 mps 747 mmHg 85%
03:00 +22°C° 0 mm 0 mps 747 mmHg 84%
04:00 +22°C° 0 mm 0 mps 747 mmHg 84%
05:00 +23°C° 0 mm 0 mps 747 mmHg 83%
06:00 +26°C° 0 mm 1 mps 747 mmHg 79%
07:00 +27°C° 0 mm 1 mps 747 mmHg 74%
08:00 +29°C° 0 mm 1 mps 747 mmHg 70%
09:00 +30°C° 0.3 mm 1 mps 747 mmHg 66%
10:00 +30°C° 0.3 mm 1 mps 747 mmHg 61%
11:00 +31°C° 0.3 mm 1 mps 747 mmHg 57%
12:00 +31°C° 0 mm 2 mps 747 mmHg 55%
13:00 +32°C° 0 mm 2 mps 747 mmHg 54%
14:00 +32°C° 0 mm 2 mps 746 mmHg 52%
15:00 +32°C° 0 mm 2 mps 746 mmHg 56%
16:00 +31°C° 0 mm 2 mps 745 mmHg 60%
17:00 +31°C° 0 mm 3 mps 744 mmHg 65%
18:00 +29°C° 0.1 mm 2 mps 745 mmHg 68%
19:00 +27°C° 0.1 mm 2 mps 745 mmHg 72%
20:00 +26°C° 0.1 mm 1 mps 745 mmHg 75%
21:00 +25°C° 0 mm 1 mps 745 mmHg 79%
22:00 +24°C° 0 mm 1 mps 745 mmHg 83%
23:00 +23°C° 0 mm 1 mps 745 mmHg 87%

26 June, Saturday

Time Temperature Precipitation Wind Pressure Humidity
00:00 +23°C° 0 mm 1 mps 744 mmHg 87%
01:00 +22°C° 0 mm 1 mps 744 mmHg 87%
02:00 +22°C° 0 mm 1 mps 744 mmHg 88%
03:00 +23°C° 0 mm 1 mps 744 mmHg 87%
04:00 +23°C° 0 mm 1 mps 744 mmHg 87%
05:00 +24°C° 0 mm 1 mps 744 mmHg 87%
06:00 +25°C° 0.1 mm 1 mps 744 mmHg 81%
07:00 +27°C° 0.1 mm 1 mps 744 mmHg 76%
08:00 +28°C° 0.1 mm 1 mps 745 mmHg 71%
09:00 +29°C° 0.2 mm 1 mps 745 mmHg 66%
10:00 +30°C° 0.2 mm 1 mps 745 mmHg 61%
11:00 +31°C° 0.2 mm 1 mps 745 mmHg 56%
12:00 +31°C° 0 mm 1 mps 744 mmHg 55%
13:00 +32°C° 0 mm 1 mps 744 mmHg 53%
14:00 +32°C° 0 mm 1 mps 744 mmHg 52%
15:00 +32°C° 0 mm 1 mps 744 mmHg 55%
16:00 +32°C° 0 mm 1 mps 744 mmHg 58%
17:00 +32°C° 0 mm 1 mps 743 mmHg 61%
18:00 +28°C° 0.1 mm 2 mps 743 mmHg 69%
19:00 +25°C° 0.1 mm 2 mps 744 mmHg 78%
20:00 +21°C° 0.1 mm 3 mps 744 mmHg 86%
21:00 +21°C° 0 mm 2 mps 743 mmHg 84%
22:00 +21°C° 0 mm 2 mps 743 mmHg 81%
23:00 +21°C° 0 mm 1 mps 743 mmHg 79%

27 June, Sunday

Time Temperature Precipitation Wind Pressure Humidity
00:00 +21°C° 0.2 mm 1 mps 743 mmHg 80%
01:00 +21°C° 0.2 mm 1 mps 743 mmHg 81%
02:00 +20°C° 0.2 mm 1 mps 743 mmHg 83%
03:00 +21°C° 0 mm 1 mps 744 mmHg 82%
04:00 +22°C° 0 mm 1 mps 744 mmHg 82%
05:00 +22°C° 0 mm 1 mps 744 mmHg 81%
06:00 +24°C° 0 mm 1 mps 744 mmHg 77%
07:00 +23°C° 0 mm 0 mps 744 mmHg 73%
08:00 +25°C° 0 mm 0 mps 744 mmHg 69%
09:00 +28°C° 0.1 mm 1 mps 744 mmHg 67%
10:00 +29°C° 0.1 mm 1 mps 744 mmHg 65%
11:00 +30°C° 0.1 mm 1 mps 744 mmHg 62%
12:00 +31°C° 0.1 mm 1 mps 744 mmHg 62%
13:00 +31°C° 0.1 mm 2 mps 744 mmHg 61%
14:00 +31°C° 0.1 mm 2 mps 743 mmHg 60%
15:00 +31°C° 0.1 mm 2 mps 743 mmHg 64%
16:00 +30°C° 0.1 mm 2 mps 743 mmHg 67%
17:00 +30°C° 0.1 mm 2 mps 743 mmHg 70%
18:00 +29°C° 0.4 mm 2 mps 743 mmHg 74%
19:00 +27°C° 0.4 mm 2 mps 743 mmHg 77%
20:00 +26°C° 0.4 mm 1 mps 743 mmHg 80%
21:00 +25°C° 0.4 mm 1 mps 743 mmHg 82%
22:00 +24°C° 0.4 mm 1 mps 742 mmHg 84%
23:00 +22°C° 0.4 mm 0 mps 742 mmHg 85%

28 June, Monday

Time Temperature Precipitation Wind Pressure Humidity
00:00 +23°C° 0.9 mm 1 mps 742 mmHg 87%
01:00 +23°C° 0.9 mm 1 mps 742 mmHg 89%
02:00 +22°C° 0.9 mm 1 mps 742 mmHg 91%
03:00 +23°C° 0.3 mm 1 mps 742 mmHg 91%
04:00 +23°C° 0.3 mm 1 mps 742 mmHg 90%
05:00 +24°C° 0.3 mm 1 mps 742 mmHg 90%
06:00 +22°C° 3.4 mm 3 mps 742 mmHg 91%
07:00 +21°C° 3.4 mm 6 mps 742 mmHg 92%
08:00 +20°C° 3.4 mm 8 mps 742 mmHg 92%
09:00 +21°C° 1.4 mm 6 mps 742 mmHg 89%
10:00 +22°C° 1.4 mm 4 mps 742 mmHg 86%
11:00 +24°C° 1.4 mm 2 mps 742 mmHg 83%
12:00 +25°C° 1 mm 3 mps 742 mmHg 80%
13:00 +27°C° 1 mm 3 mps 742 mmHg 78%
14:00 +28°C° 1 mm 4 mps 742 mmHg 75%
15:00 +27°C° 1.7 mm 4 mps 741 mmHg 79%
16:00 +26°C° 1.7 mm 3 mps 741 mmHg 82%
17:00 +26°C° 1.7 mm 3 mps 740 mmHg 86%
18:00 +24°C° 2.6 mm 3 mps 740 mmHg 89%
19:00 +22°C° 2.6 mm 3 mps 740 mmHg 92%
20:00 +21°C° 2.6 mm 3 mps 740 mmHg 95%
21:00 +21°C° 1.4 mm 3 mps 740 mmHg 95%
22:00 +20°C° 1.4 mm 3 mps 740 mmHg 96%
23:00 +20°C° 1.4 mm 3 mps 740 mmHg 96%
Show more